sat.trackr.live / text

‹ back to catalog

STARLINK-33639

NORAD 63481 · 2025-070X

PAYLOAD ACTIVE UNKNOWN

§ Identity

Operator
Country
US
Launch date
2025-04-06
Launch site
AFETR
Launch vehicle
Mass (kg)
RCS (m²)

Purposes: comms

External: N2YO · Heavens-Above · Gunter

§ Orbital elements

Epoch: 2026-05-25T04:17:06.804672Z

Period
94.27 min
Inclination
43.0005°
Eccentricity
0.0001509
Mean motion
15.27601260 rev/d
Perigee alt
482.0 km
Apogee alt
484.0 km
Semi-major
6,861.1 km
B*
8.6386e-4
RAAN
184.4085°
Arg perigee
275.1028°
Mean anomaly
84.9651°
Rev number
6,471

§ Raw data

STARLINK-336391 63481U 25070X   26145.17855098  .00023601  00000+0  86386-3 0  99922 63481  43.0005 184.4085 0001509 275.1028  84.9651 15.27601260 64717

JSON: /api/v1/satellites/63481 · /tle

For live sub-satellite position, see the globe view (requires WebGL).

§ Visibility from observer

Set your observer location to see the next 7 days of passes ≥ 10°. The values pass through the URL so the page stays shareable.

No JS? Fill the form by hand. The geolocation button needs JavaScript.